Time,TemperatureF,DewpointF,PressureIn,WindDirection,WindDirectionDegrees,WindSpeedMPH,WindSpeedGustMPH,Humidity,HourlyPrecipIn,Conditions,Clouds,dailyrainin,SolarRadiationWatts/m^2,SoftwareType,DateUTC
2013-02-21 01:50:00,26.2,14.9,30.14,NW,319,0.0,0.0,62,0.00,,SCT,0.00,0.0,WeatherDisplay:10.37,2013-02-21 06:50:00,
2013-02-21 01:55:00,26.1,15.2,30.14,NW,319,0.0,0.0,63,0.00,,SCT,0.00,0.0,WeatherDisplay:10.37,2013-02-21 06:55:00,
2013-02-21 02:00:00,26.0,15.1,30.15,NW,319,0.0,0.0,63,0.00,,SCT,0.00,0.0,WeatherDisplay:10.37,2013-02-21 07:00:00,
2013-02-21 02:05:00,25.9,15.0,30.14,NW,319,0.0,0.0,63,0.00,,SCT,0.00,0.0,WeatherDisplay:10.37,2013-02-21 07:05:00,
2013-02-21 02:10:00,25.8,14.9,30.15,NW,319,0.0,0.0,63,0.00,,SCT,0.00,0.0,WeatherDisplay:10.37,2013-02-21 07:10:00,
2013-02-21 02:15:00,25.7,15.2,30.15,NW,319,0.0,0.0,64,0.00,,SCT,0.00,0.0,WeatherDisplay:10.37,2013-02-21 07:15:00,
2013-02-21 02:20:00,25.6,15.5,30.15,NW,319,0.0,0.0,65,0.00,,SCT,0.00,0.0,WeatherDisplay:10.37,2013-02-21 07:20:00,
2013-02-21 02:25:00,25.5,15.0,30.15,NW,319,0.0,0.0,64,0.00,,SCT,0.00,0.0,WeatherDisplay:10.37,2013-02-21 07:25:00,
2013-02-21 02:30:00,25.5,15.0,30.15,NW,319,0.0,0.0,64,0.00,,SCT,0.00,0.0,WeatherDisplay:10.37,2013-02-21 07:30:00,
2013-02-21 02:35:00,25.4,14.9,30.15,NW,319,0.0,0.0,64,0.00,,SCT,0.00,0.0,WeatherDisplay:10.37,2013-02-21 07:35:00,
2013-02-21 02:40:00,25.3,15.2,30.15,NW,319,0.0,0.0,65,0.00,,SCT,0.00,0.0,WeatherDisplay:10.37,2013-02-21 07:40:00,
2013-02-21 02:45:00,25.1,15.0,30.15,NW,319,0.0,0.0,65,0.00,,SCT,0.00,0.0,WeatherDisplay:10.37,2013-02-21 07:45:00,
2013-02-21 02:50:00,25.0,14.9,30.15,NW,319,0.0,0.0,65,0.00,,SCT,0.00,0.0,WeatherDisplay:10.37,2013-02-21 07:50:00,
2013-02-21 02:55:00,24.8,14.7,30.15,NW,319,0.0,0.0,65,0.00,,SCT,0.00,0.0,WeatherDisplay:10.37,2013-02-21 07:55:00,
2013-02-21 03:00:00,24.7,15.0,30.15,NW,319,0.0,0.0,66,0.00,,SCT,0.00,0.0,WeatherDisplay:10.37,2013-02-21 08:00:00,
2013-02-21 03:05:00,24.7,15.3,30.15,NW,319,0.0,0.0,67,0.00,,SCT,0.00,0.0,WeatherDisplay:10.37,2013-02-21 08:05:00,
2013-02-21 03:10:00,24.6,15.2,30.15,NW,319,0.0,0.0,67,0.00,,SCT,0.00,0.0,WeatherDisplay:10.37,2013-02-21 08:10:00,
2013-02-21 03:15:00,24.5,15.1,30.15,NW,319,0.0,0.0,67,0.00,,SCT,0.00,0.0,WeatherDisplay:10.37,2013-02-21 08:15:00,
2013-02-21 03:20:00,24.4,15.0,30.15,NW,319,0.0,0.0,67,0.00,,SCT,0.00,0.0,WeatherDisplay:10.37,2013-02-21 08:20:00,
2013-02-21 03:25:00,24.3,15.6,30.14,NW,319,0.0,0.0,69,0.00,,SCT,0.00,0.0,WeatherDisplay:10.37,2013-02-21 08:25:00,
2013-02-21 03:30:00,24.2,15.8,30.15,NW,319,0.0,0.0,70,0.00,,SCT,0.00,0.0,WeatherDisplay:10.37,2013-02-21 08:30:00,
2013-02-21 03:35:00,24.2,15.5,30.15,NW,319,0.0,0.0,69,0.00,,SCT,0.00,0.0,WeatherDisplay:10.37,2013-02-21 08:35:00,
2013-02-21 03:40:00,24.1,15.7,30.15,NW,319,0.0,0.0,70,0.00,,SCT,0.00,0.0,WeatherDisplay:10.37,2013-02-21 08:40:00,
2013-02-21 03:45:00,24.1,15.4,30.16,NW,319,0.0,0.0,69,0.00,,SCT,0.00,0.0,WeatherDisplay:10.37,2013-02-21 08:45:00,
2013-02-21 03:50:00,24.0,15.3,30.16,NW,319,0.0,0.0,69,0.00,,SCT,0.00,0.0,WeatherDisplay:10.37,2013-02-21 08:50:00,
2013-02-21 03:55:00,23.9,15.2,30.16,NW,319,0.0,0.0,69,0.00,,SCT,0.00,0.0,WeatherDisplay:10.37,2013-02-21 08:55:00,
2013-02-21 04:00:00,23.8,14.8,30.16,NW,319,0.0,0.0,68,0.00,,SCT,0.00,0.0,WeatherDisplay:10.37,2013-02-21 09:00:00,
2013-02-21 04:05:00,23.7,15.0,30.16,NW,319,0.0,0.0,69,0.00,,SCT,0.00,0.0,WeatherDisplay:10.37,2013-02-21 09:05:00,
2013-02-21 04:10:00,23.6,15.2,30.16,NW,319,0.0,0.0,70,0.00,,SCT,0.00,0.0,WeatherDisplay:10.37,2013-02-21 09:10:00,
2013-02-21 04:15:00,23.5,15.1,30.16,NW,319,0.0,0.0,70,0.00,,SCT,0.00,0.0,WeatherDisplay:10.37,2013-02-21 09:15:00,
2013-02-21 04:20:00,23.3,15.0,30.16,NW,319,0.0,0.0,70,0.00,,SCT,0.00,0.0,WeatherDisplay:10.37,2013-02-21 09:20:00,
2013-02-21 04:25:00,23.2,14.9,30.16,NW,319,0.0,0.0,70,0.00,,SCT,0.00,0.0,WeatherDisplay:10.37,2013-02-21 09:25:00,
2013-02-21 04:30:00,23.1,14.8,30.16,NW,319,0.0,0.0,70,0.00,,SCT,0.00,0.0,WeatherDisplay:10.37,2013-02-21 09:30:00,
2013-02-21 04:35:00,23.0,15.6,30.16,NW,319,0.0,0.0,73,0.00,,SCT,0.00,0.0,WeatherDisplay:10.37,2013-02-21 09:35:00,
2013-02-21 04:40:00,22.9,14.9,30.16,NW,319,0.0,0.0,71,0.00,,SCT,0.00,0.0,WeatherDisplay:10.37,2013-02-21 09:40:00,
2013-02-21 04:45:00,22.8,14.8,30.16,NW,319,0.0,0.0,71,0.00,,SCT,0.00,0.0,WeatherDisplay:10.37,2013-02-21 09:45:00,
2013-02-21 04:50:00,22.7,15.0,30.17,NW,319,0.0,0.0,72,0.00,,SCT,0.00,0.0,WeatherDisplay:10.37,2013-02-21 09:50:00,
2013-02-21 04:55:00,22.7,15.0,30.17,NW,319,0.0,0.0,72,0.00,,SCT,0.00,0.0,WeatherDisplay:10.37,2013-02-21 09:55:00,
2013-02-21 05:05:00,22.7,15.3,30.17,NW,319,0.0,0.0,73,0.00,,SCT,0.00,0.0,WeatherDisplay:10.37,2013-02-21 10:05:00,
2013-02-21 05:10:00,22.7,15.3,30.17,NW,319,0.0,0.0,73,0.00,,SCT,0.00,0.0,WeatherDisplay:10.37,2013-02-21 10:10:00,
2013-02-21 05:15:00,22.6,15.2,30.17,NW,319,0.0,0.0,73,0.00,,SCT,0.00,0.0,WeatherDisplay:10.37,2013-02-21 10:15:00,
2013-02-21 05:20:00,22.5,15.2,30.17,NW,319,0.0,0.0,73,0.00,,SCT,0.00,0.0,WeatherDisplay:10.37,2013-02-21 10:20:00,
2013-02-21 05:30:00,22.4,15.1,30.17,NW,319,0.0,0.0,73,0.00,,SCT,0.00,0.0,WeatherDisplay:10.37,2013-02-21 10:30:00,
2013-02-21 05:35:00,22.3,15.0,30.17,NW,319,0.0,0.0,73,0.00,,SCT,0.00,0.0,WeatherDisplay:10.37,2013-02-21 10:35:00,
2013-02-21 05:45:00,22.2,14.9,30.18,NW,319,0.0,0.0,73,0.00,,SCT,0.00,0.0,WeatherDisplay:10.37,2013-02-21 10:45:00,
2013-02-21 05:50:00,22.2,14.8,30.18,NW,319,0.0,0.0,73,0.00,,SCT,0.00,0.0,WeatherDisplay:10.37,2013-02-21 10:50:00,
2013-02-21 06:00:00,22.0,15.0,30.18,NW,319,0.0,0.0,74,0.00,,SCT,0.00,0.0,WeatherDisplay:10.37,2013-02-21 11:00:00,
2013-02-21 06:05:00,21.9,14.9,30.19,NW,319,0.0,0.0,74,0.00,,SCT,0.00,0.0,WeatherDisplay:10.37,2013-02-21 11:05:00,
2013-02-21 06:10:00,21.8,14.8,30.19,NW,319,0.0,0.0,74,0.00,,SCT,0.00,0.0,WeatherDisplay:10.37,2013-02-21 11:10:00,
2013-02-21 06:15:00,21.7,14.7,30.19,NW,319,0.0,0.0,74,0.00,,SCT,0.00,0.0,WeatherDisplay:10.37,2013-02-21 11:15:00,
2013-02-21 06:20:00,21.7,15.0,30.19,NW,319,0.0,0.0,75,0.00,,SCT,0.00,0.0,WeatherDisplay:10.37,2013-02-21 11:20:00,
2013-02-21 06:25:00,21.7,15.0,30.19,NW,319,0.0,0.0,75,0.00,,SCT,0.00,0.0,WeatherDisplay:10.37,2013-02-21 11:25:00,
2013-02-21 06:30:00,21.6,14.9,30.19,NW,319,0.0,0.0,75,0.00,,SCT,0.00,0.0,WeatherDisplay:10.37,2013-02-21 11:30:00,
2013-02-21 06:35:00,21.6,14.9,30.19,NW,319,0.0,0.0,75,0.00,,SCT,0.00,0.0,WeatherDisplay:10.37,2013-02-21 11:35:00,
2013-02-21 06:40:00,21.5,14.8,30.20,NW,319,0.0,0.0,75,0.00,,SCT,0.00,0.0,WeatherDisplay:10.37,2013-02-21 11:40:00,
2013-02-21 06:45:00,21.4,14.7,30.20,NW,319,0.0,0.0,75,0.00,,SCT,0.00,0.0,WeatherDisplay:10.37,2013-02-21 11:45:00,
2013-02-21 06:50:00,21.3,14.6,30.20,NW,319,0.0,0.0,75,0.00,,SCT,0.00,0.0,WeatherDisplay:10.37,2013-02-21 11:50:00,
2013-02-21 06:55:00,21.3,14.9,30.20,NW,319,0.0,0.0,76,0.00,,SCT,0.00,0.0,WeatherDisplay:10.37,2013-02-21 11:55:00,
2013-02-21 07:00:00,21.2,14.8,30.20,NW,319,0.0,0.0,76,0.00,,SCT,0.00,0.0,WeatherDisplay:10.37,2013-02-21 12:00:00,
2013-02-21 07:05:00,21.1,15.0,30.20,NW,319,0.0,0.0,77,0.00,CLR,SCT,0.00,5.0,WeatherDisplay:10.37,2013-02-21 12:05:00,
2013-02-21 07:10:00,21.0,14.7,30.20,NW,319,0.0,0.0,76,0.00,CLR,SCT,0.00,7.0,WeatherDisplay:10.37,2013-02-21 12:10:00,
2013-02-21 07:15:00,21.0,14.9,30.21,NW,319,0.0,0.0,77,0.00,CLR,SCT,0.00,11.0,WeatherDisplay:10.37,2013-02-21 12:15:00,
2013-02-21 07:20:00,20.9,14.8,30.21,NW,319,0.0,0.0,77,0.00,CLR,SCT,0.00,32.0,WeatherDisplay:10.37,2013-02-21 12:20:00,
2013-02-21 07:30:00,21.0,15.2,30.21,NW,319,0.0,0.0,78,0.00,CLR,SCT,0.00,76.0,WeatherDisplay:10.37,2013-02-21 12:30:00,
2013-02-21 07:40:00,21.4,15.6,30.22,NW,319,0.0,0.0,78,0.00,CLR,SCT,0.00,116.0,WeatherDisplay:10.37,2013-02-21 12:40:00,
2013-02-21 07:45:00,21.7,16.2,30.22,NW,319,0.0,0.0,79,0.00,CLR,SCT,0.00,137.0,WeatherDisplay:10.37,2013-02-21 12:45:00,
2013-02-21 07:50:00,22.3,17.1,30.22,NW,319,0.0,0.0,80,0.00,CLR,SCT,0.00,153.0,WeatherDisplay:10.37,2013-02-21 12:50:00,
2013-02-21 07:55:00,22.8,17.6,30.22,NW,319,0.0,0.0,80,0.00,CLR,SCT,0.00,167.0,WeatherDisplay:10.37,2013-02-21 12:55:00,
2013-02-21 08:00:00,23.4,18.5,30.22,NW,319,0.0,0.0,81,0.00,CLR,SCT,0.00,179.0,WeatherDisplay:10.37,2013-02-21 13:00:00,
2013-02-21 08:05:00,24.2,19.2,30.23,NW,323,0.0,0.0,81,0.00,CLR,SCT,0.00,186.0,WeatherDisplay:10.37,2013-02-21 13:05:00,
2013-02-21 08:10:00,25.0,20.0,30.23,NNW,328,0.0,1.0,81,0.00,CLR,SCT,0.00,193.0,WeatherDisplay:10.37,2013-02-21 13:10:00,
2013-02-21 08:15:00,25.8,20.7,30.23,NNW,333,0.0,0.0,81,0.00,BKN,SCT,0.00,207.0,WeatherDisplay:10.37,2013-02-21 13:15:00,
2013-02-21 08:20:00,26.5,21.2,30.23,NNW,333,0.0,0.0,80,0.00,CLR,SCT,0.00,225.0,WeatherDisplay:10.37,2013-02-21 13:20:00,
2013-02-21 08:25:00,27.3,21.3,30.24,NNW,333,0.0,1.0,78,0.00,CLR,SCT,0.00,243.0,WeatherDisplay:10.37,2013-02-21 13:25:00,
2013-02-21 08:30:00,28.0,21.4,30.24,NNW,333,0.0,1.0,76,0.00,CLR,SCT,0.00,260.0,WeatherDisplay:10.37,2013-02-21 13:30:00,
2013-02-21 08:35:00,28.7,21.8,30.24,NNW,333,0.0,1.0,75,0.00,CLR,SCT,0.00,278.0,WeatherDisplay:10.37,2013-02-21 13:35:00,
2013-02-21 08:40:00,29.4,22.1,30.24,NNW,333,0.0,1.0,74,0.00,CLR,SCT,0.00,295.0,WeatherDisplay:10.37,2013-02-21 13:40:00,
2013-02-21 08:45:00,30.1,22.1,30.23,NNW,333,0.0,1.0,72,0.00,CLR,SCT,0.00,309.0,WeatherDisplay:10.37,2013-02-21 13:45:00,
2013-02-21 08:50:00,30.8,21.5,30.23,NNW,333,0.0,1.0,68,0.00,CLR,SCT,0.00,327.0,WeatherDisplay:10.37,2013-02-21 13:50:00,
2013-02-21 08:55:00,31.5,21.5,30.23,NNW,333,0.0,1.0,66,0.00,CLR,SCT,0.00,343.0,WeatherDisplay:10.37,2013-02-21 13:55:00,
2013-02-21 09:00:00,32.3,21.8,30.24,NNW,333,0.0,1.0,65,0.00,CLR,SCT,0.00,360.0,WeatherDisplay:10.37,2013-02-21 14:00:00,
2013-02-21 09:05:00,33.1,21.8,30.24,NNW,333,0.0,2.0,63,0.00,CLR,SCT,0.00,378.0,WeatherDisplay:10.37,2013-02-21 14:05:00,
2013-02-21 09:10:00,33.8,21.8,30.23,NNW,333,0.0,1.0,61,0.00,CLR,SCT,0.00,396.0,WeatherDisplay:10.37,2013-02-21 14:10:00,
2013-02-21 09:15:00,34.4,21.9,30.23,NNW,333,0.0,1.0,60,0.00,CLR,SCT,0.00,411.0,WeatherDisplay:10.37,2013-02-21 14:15:00,
2013-02-21 09:20:00,35.1,21.8,30.23,NNW,333,0.0,1.0,58,0.00,CLR,SCT,0.00,427.0,WeatherDisplay:10.37,2013-02-21 14:20:00,
2013-02-21 09:25:00,35.9,21.7,30.23,NNW,333,0.0,1.0,56,0.00,CLR,SCT,0.00,443.0,WeatherDisplay:10.37,2013-02-21 14:25:00,
2013-02-21 09:30:00,36.6,21.5,30.23,NNW,333,0.0,1.0,54,0.00,CLR,SCT,0.00,461.0,WeatherDisplay:10.37,2013-02-21 14:30:00,
2013-02-21 09:35:00,37.2,21.7,30.23,NNW,333,0.0,1.0,53,0.00,CLR,SCT,0.00,476.0,WeatherDisplay:10.37,2013-02-21 14:35:00,
2013-02-21 09:40:00,37.8,21.7,30.23,NNW,333,0.0,2.0,52,0.00,CLR,SCT,0.00,490.0,WeatherDisplay:10.37,2013-02-21 14:40:00,
2013-02-21 09:45:00,38.3,21.8,30.23,NNW,333,0.0,1.0,51,0.00,CLR,SCT,0.00,506.0,WeatherDisplay:10.37,2013-02-21 14:45:00,
2013-02-21 09:50:00,39.1,21.5,30.23,NNW,333,0.0,1.0,49,0.00,CLR,SCT,0.00,522.0,WeatherDisplay:10.37,2013-02-21 14:50:00,
2013-02-21 09:55:00,39.7,22.6,30.23,NNW,333,0.0,1.0,50,0.00,CLR,SCT,0.00,533.0,WeatherDisplay:10.37,2013-02-21 14:55:00,
2013-02-21 10:00:00,40.5,22.3,30.23,NNW,333,0.0,2.0,48,0.00,CLR,SCT,0.00,550.0,WeatherDisplay:10.37,2013-02-21 15:00:00,
2013-02-21 10:05:00,41.0,21.2,30.23,NNW,333,0.0,3.0,45,0.00,CLR,SCT,0.00,564.0,WeatherDisplay:10.37,2013-02-21 15:05:00,
2013-02-21 10:10:00,41.3,21.0,30.24,NNW,333,0.0,3.0,44,0.00,CLR,SCT,0.00,578.0,WeatherDisplay:10.37,2013-02-21 15:10:00,
2013-02-21 10:20:00,42.1,21.7,30.24,NNW,333,1.0,4.0,44,0.00,CLR,SCT,0.00,605.0,WeatherDisplay:10.37,2013-02-21 15:20:00,
2013-02-21 10:25:00,42.4,20.3,30.23,NNW,331,0.0,5.0,41,0.00,CLR,SCT,0.00,619.0,WeatherDisplay:10.37,2013-02-21 15:25:00,
2013-02-21 10:30:00,42.7,20.0,30.23,NW,326,2.0,4.0,40,0.00,CLR,SCT,0.00,629.0,WeatherDisplay:10.37,2013-02-21 15:30:00,
2013-02-21 10:35:00,43.0,19.7,30.23,NW,324,0.0,2.0,39,0.00,CLR,SCT,0.00,642.0,WeatherDisplay:10.37,2013-02-21 15:35:00,
2013-02-21 10:40:00,43.4,20.1,30.23,NW,323,0.0,2.0,39,0.00,CLR,SCT,0.00,654.0,WeatherDisplay:10.37,2013-02-21 15:40:00,
2013-02-21 10:45:00,43.8,21.6,30.23,NW,323,0.0,1.0,41,0.00,CLR,SCT,0.00,663.0,WeatherDisplay:10.37,2013-02-21 15:45:00,
2013-02-21 10:55:00,45.0,20.3,30.23,NW,323,1.0,5.0,37,0.00,CLR,SCT,0.00,686.0,WeatherDisplay:10.37,2013-02-21 15:55:00,
2013-02-21 11:00:00,45.2,21.1,30.23,NW,323,1.0,3.0,38,0.00,CLR,SCT,0.00,694.0,WeatherDisplay:10.37,2013-02-21 16:00:00,
2013-02-21 11:10:00,45.6,22.0,30.23,NW,322,0.0,2.0,39,0.00,CLR,SCT,0.00,710.0,WeatherDisplay:10.37,2013-02-21 16:10:00,
2013-02-21 11:15:00,45.7,20.9,30.22,NW,322,0.0,3.0,37,0.00,CLR,SCT,0.00,719.0,WeatherDisplay:10.37,2013-02-21 16:15:00,
2013-02-21 11:20:00,45.9,21.7,30.22,NW,322,0.0,3.0,38,0.00,CLR,SCT,0.00,726.0,WeatherDisplay:10.37,2013-02-21 16:20:00,
2013-02-21 11:25:00,46.2,20.0,30.22,NW,321,1.0,4.0,35,0.00,CLR,SCT,0.00,735.0,WeatherDisplay:10.37,2013-02-21 16:25:00,
2013-02-21 11:30:00,46.4,20.9,30.22,NW,319,1.0,4.0,36,0.00,CLR,SCT,0.00,744.0,WeatherDisplay:10.37,2013-02-21 16:30:00,
2013-02-21 11:35:00,46.7,19.8,30.21,WNW,293,3.0,8.0,34,0.00,CLR,SCT,0.00,747.0,WeatherDisplay:10.37,2013-02-21 16:35:00,
2013-02-21 11:40:00,47.0,20.0,30.22,SW,229,1.0,4.0,34,0.00,CLR,SCT,0.00,754.0,WeatherDisplay:10.37,2013-02-21 16:40:00,
2013-02-21 11:45:00,47.2,19.5,30.21,SW,219,1.0,5.0,33,0.00,CLR,SCT,0.00,759.0,WeatherDisplay:10.37,2013-02-21 16:45:00,
2013-02-21 11:50:00,47.5,19.0,30.21,SW,221,1.0,4.0,32,0.00,CLR,SCT,0.00,765.0,WeatherDisplay:10.37,2013-02-21 16:50:00,
2013-02-21 11:55:00,47.6,19.9,30.20,SW,224,1.0,5.0,33,0.00,CLR,SCT,0.00,770.0,WeatherDisplay:10.37,2013-02-21 16:55:00,
2013-02-21 12:00:00,48.0,20.2,30.20,SW,226,0.0,2.0,33,0.00,CLR,SCT,0.00,773.0,WeatherDisplay:10.37,2013-02-21 17:00:00,
2013-02-21 12:05:00,48.4,19.8,30.20,SW,226,0.0,1.0,32,0.00,CLR,SCT,0.00,780.0,WeatherDisplay:10.37,2013-02-21 17:05:00,
2013-02-21 12:10:00,48.8,19.5,30.19,SW,226,1.0,5.0,31,0.00,CLR,SCT,0.00,784.0,WeatherDisplay:10.37,2013-02-21 17:10:00,
2013-02-21 12:15:00,49.2,19.8,30.19,SW,226,0.0,5.0,31,0.00,CLR,SCT,0.00,786.0,WeatherDisplay:10.37,2013-02-21 17:15:00,
2013-02-21 12:20:00,49.5,19.3,30.19,SW,223,2.0,5.0,30,0.00,CLR,SCT,0.00,788.0,WeatherDisplay:10.37,2013-02-21 17:20:00,
2013-02-21 12:25:00,49.7,18.7,30.18,SSW,197,3.0,6.0,29,0.00,CLR,SCT,0.00,789.0,WeatherDisplay:10.37,2013-02-21 17:25:00,
2013-02-21 12:30:00,49.5,17.7,30.18,South,181,1.0,5.0,28,0.00,CLR,SCT,0.00,793.0,WeatherDisplay:10.37,2013-02-21 17:30:00,
2013-02-21 12:35:00,49.5,19.3,30.17,South,171,0.0,3.0,30,0.00,CLR,SCT,0.00,795.0,WeatherDisplay:10.37,2013-02-21 17:35:00,
2013-02-21 12:40:00,49.9,20.5,30.18,South,171,2.0,4.0,31,0.00,CLR,SCT,0.00,795.0,WeatherDisplay:10.37,2013-02-21 17:40:00,
2013-02-21 12:45:00,50.4,20.1,30.17,South,170,2.0,6.0,30,0.00,CLR,SCT,0.00,793.0,WeatherDisplay:10.37,2013-02-21 17:45:00,
2013-02-21 12:50:00,50.6,18.6,30.17,SSE,151,2.0,6.0,28,0.00,CLR,SCT,0.00,791.0,WeatherDisplay:10.37,2013-02-21 17:50:00,
2013-02-21 12:55:00,50.6,18.6,30.16,East,99,2.0,8.0,28,0.00,CLR,SCT,0.00,789.0,WeatherDisplay:10.37,2013-02-21 17:55:00,
2013-02-21 13:05:00,51.2,20.8,30.15,ESE,119,0.0,6.0,30,0.00,CLR,SCT,0.00,789.0,WeatherDisplay:10.37,2013-02-21 18:05:00,
2013-02-21 13:10:00,51.7,20.4,30.15,SE,138,1.0,4.0,29,0.00,CLR,SCT,0.00,786.0,WeatherDisplay:10.37,2013-02-21 18:10:00,
2013-02-21 13:15:00,52.2,20.0,30.14,SE,140,0.0,4.0,28,0.00,CLR,SCT,0.00,784.0,WeatherDisplay:10.37,2013-02-21 18:15:00,
2013-02-21 13:20:00,52.6,18.6,30.15,South,171,3.0,6.0,26,0.00,CLR,SCT,0.00,780.0,WeatherDisplay:10.37,2013-02-21 18:20:00,
2013-02-21 13:25:00,52.9,18.0,30.15,SSW,196,0.0,6.0,25,0.00,CLR,SCT,0.00,777.0,WeatherDisplay:10.37,2013-02-21 18:25:00,
2013-02-21 13:30:00,53.2,20.9,30.15,SW,224,2.0,6.0,28,0.00,CLR,SCT,0.00,773.0,WeatherDisplay:10.37,2013-02-21 18:30:00,
2013-02-21 13:35:00,53.3,17.4,30.14,WSW,246,0.0,7.0,24,0.00,CLR,SCT,0.00,768.0,WeatherDisplay:10.37,2013-02-21 18:35:00,
2013-02-21 13:40:00,53.5,17.6,30.14,WSW,257,0.0,1.0,24,0.00,CLR,SCT,0.00,765.0,WeatherDisplay:10.37,2013-02-21 18:40:00,
2013-02-21 13:45:00,53.9,17.9,30.14,West,261,2.0,3.0,24,0.00,CLR,SCT,0.00,759.0,WeatherDisplay:10.37,2013-02-21 18:45:00,
2013-02-21 13:55:00,54.2,17.1,30.13,West,261,1.0,4.0,23,0.00,CLR,SCT,0.00,751.0,WeatherDisplay:10.37,2013-02-21 18:55:00,
2013-02-21 14:00:00,54.5,18.4,30.13,West,261,1.0,4.0,24,0.00,CLR,SCT,0.00,742.0,WeatherDisplay:10.37,2013-02-21 19:00:00,
2013-02-21 14:05:00,54.7,18.5,30.12,West,262,1.0,4.0,24,0.00,CLR,SCT,0.00,733.0,WeatherDisplay:10.37,2013-02-21 19:05:00,
2013-02-21 14:10:00,54.8,18.7,30.12,West,263,0.0,4.0,24,0.00,CLR,SCT,0.00,724.0,WeatherDisplay:10.37,2013-02-21 19:10:00,
2013-02-21 14:15:00,55.0,17.8,30.11,West,263,1.0,3.0,23,0.00,CLR,SCT,0.00,717.0,WeatherDisplay:10.37,2013-02-21 19:15:00,
2013-02-21 14:20:00,55.2,19.0,30.12,WSW,251,5.0,7.0,24,0.00,CLR,SCT,0.00,712.0,WeatherDisplay:10.37,2013-02-21 19:20:00,
2013-02-21 14:25:00,55.5,19.2,30.12,WSW,242,1.0,4.0,24,0.00,CLR,SCT,0.00,703.0,WeatherDisplay:10.37,2013-02-21 19:25:00,
2013-02-21 14:30:00,55.6,16.2,30.12,WSW,240,0.0,3.0,21,0.00,CLR,SCT,0.00,696.0,WeatherDisplay:10.37,2013-02-21 19:30:00,
2013-02-21 14:35:00,55.6,17.3,30.12,SW,236,3.0,6.0,22,0.00,CLR,SCT,0.00,689.0,WeatherDisplay:10.37,2013-02-21 19:35:00,
2013-02-21 14:40:00,55.5,19.3,30.11,SW,235,0.0,3.0,24,0.00,CLR,SCT,0.00,619.0,WeatherDisplay:10.37,2013-02-21 19:40:00,
2013-02-21 14:45:00,55.8,18.5,30.11,SW,233,0.0,4.0,23,0.00,CLR,SCT,0.00,671.0,WeatherDisplay:10.37,2013-02-21 19:45:00,
2013-02-21 14:50:00,56.3,19.9,30.11,SW,233,1.0,5.0,24,0.00,CLR,SCT,0.00,659.0,WeatherDisplay:10.37,2013-02-21 19:50:00,
2013-02-21 14:55:00,56.6,17.1,30.11,SW,221,1.0,5.0,21,0.00,CLR,SCT,0.00,643.0,WeatherDisplay:10.37,2013-02-21 19:55:00,
2013-02-21 15:00:00,56.8,17.2,30.11,SW,215,1.0,4.0,21,0.00,CLR,SCT,0.00,603.0,WeatherDisplay:10.37,2013-02-21 20:00:00,
2013-02-21 15:05:00,57.0,19.5,30.11,SSW,213,0.0,7.0,23,0.00,CLR,SCT,0.00,626.0,WeatherDisplay:10.37,2013-02-21 20:05:00,
2013-02-21 15:10:00,57.3,18.7,30.11,SSW,209,1.0,6.0,22,0.00,CLR,SCT,0.00,622.0,WeatherDisplay:10.37,2013-02-21 20:10:00,
2013-02-21 15:15:00,57.1,18.6,30.11,SE,137,2.0,7.0,22,0.00,CLR,SCT,0.00,619.0,WeatherDisplay:10.37,2013-02-21 20:15:00,
2013-02-21 15:20:00,56.9,19.4,30.12,ESE,102,3.0,8.0,23,0.00,CLR,SCT,0.00,561.0,WeatherDisplay:10.37,2013-02-21 20:20:00,
2013-02-21 15:25:00,56.7,17.1,30.11,East,97,1.0,5.0,21,0.00,CLR,SCT,0.00,543.0,WeatherDisplay:10.37,2013-02-21 20:25:00,
2013-02-21 15:30:00,56.8,18.3,30.12,ESE,107,1.0,3.0,22,0.00,FEW,SCT,0.00,450.0,WeatherDisplay:10.37,2013-02-21 20:30:00,
2013-02-21 15:35:00,56.6,15.9,30.12,ESE,102,3.0,7.0,20,0.00,SCT,SCT,0.00,216.0,WeatherDisplay:10.37,2013-02-21 20:35:00,
2013-02-21 15:40:00,56.2,16.7,30.12,East,100,0.0,2.0,21,0.00,SCT,SCT,0.00,269.0,WeatherDisplay:10.37,2013-02-21 20:40:00,
2013-02-21 15:45:00,55.9,16.5,30.12,East,96,1.0,5.0,21,0.00,BKN,SCT,0.00,200.0,WeatherDisplay:10.37,2013-02-21 20:45:00,
2013-02-21 15:50:00,55.5,16.2,30.12,East,96,2.0,5.0,21,0.00,BKN,SCT,0.00,181.0,WeatherDisplay:10.37,2013-02-21 20:50:00,
2013-02-21 15:55:00,55.2,15.9,30.12,East,96,2.0,5.0,21,0.00,BKN,SCT,0.00,206.0,WeatherDisplay:10.37,2013-02-21 20:55:00,
2013-02-21 16:00:00,55.0,16.8,30.12,East,96,1.0,2.0,22,0.00,BKN,SCT,0.00,192.0,WeatherDisplay:10.37,2013-02-21 21:00:00,
2013-02-21 16:05:00,55.0,16.8,30.12,East,96,1.0,2.0,22,0.00,BKN,SCT,0.00,188.0,WeatherDisplay:10.37,2013-02-21 21:05:00,
2013-02-21 16:10:00,55.0,16.8,30.13,East,96,1.0,5.0,22,0.00,BKN,SCT,0.00,190.0,WeatherDisplay:10.37,2013-02-21 21:10:00,
2013-02-21 16:15:00,55.0,17.8,30.13,East,96,0.0,2.0,23,0.00,BKN,SCT,0.00,213.0,WeatherDisplay:10.37,2013-02-21 21:15:00,
2013-02-21 16:20:00,55.0,16.8,30.13,East,96,0.0,1.0,22,0.00,SCT,SCT,0.00,218.0,WeatherDisplay:10.37,2013-02-21 21:20:00,
2013-02-21 16:25:00,55.1,17.9,30.13,East,92,5.0,8.0,23,0.00,SCT,SCT,0.00,207.0,WeatherDisplay:10.37,2013-02-21 21:25:00,
2013-02-21 16:30:00,55.0,17.8,30.13,East,92,1.0,5.0,23,0.00,BKN,SCT,0.00,174.0,WeatherDisplay:10.37,2013-02-21 21:30:00,
2013-02-21 16:35:00,55.0,18.8,30.13,East,92,1.0,3.0,24,0.00,BKN,SCT,0.00,174.0,WeatherDisplay:10.37,2013-02-21 21:35:00,
2013-02-21 16:40:00,55.0,17.8,30.13,East,92,1.0,5.0,23,0.00,BKN,SCT,0.00,162.0,WeatherDisplay:10.37,2013-02-21 21:40:00,
2013-02-21 16:45:00,54.9,20.6,30.13,East,92,0.0,3.0,26,0.00,BKN,SCT,0.00,153.0,WeatherDisplay:10.37,2013-02-21 21:45:00,
2013-02-21 16:50:00,54.9,18.7,30.13,East,92,2.0,5.0,24,0.00,BKN,SCT,0.00,135.0,WeatherDisplay:10.37,2013-02-21 21:50:00,
2013-02-21 16:55:00,54.7,19.5,30.13,East,92,1.0,3.0,25,0.00,BKN,SCT,0.00,127.0,WeatherDisplay:10.37,2013-02-21 21:55:00,
2013-02-21 17:00:00,54.6,21.2,30.12,East,92,1.0,3.0,27,0.00,BKN,SCT,0.00,125.0,WeatherDisplay:10.37,2013-02-21 22:00:00,
2013-02-21 17:05:00,54.5,21.2,30.12,East,92,1.0,6.0,27,0.00,BKN,SCT,0.00,125.0,WeatherDisplay:10.37,2013-02-21 22:05:00,
2013-02-21 17:10:00,54.3,19.2,30.12,East,92,1.0,3.0,25,0.00,BKN,SCT,0.00,118.0,WeatherDisplay:10.37,2013-02-21 22:10:00,
2013-02-21 17:15:00,54.2,20.9,30.12,East,91,2.0,6.0,27,0.00,BKN,SCT,0.00,98.0,WeatherDisplay:10.37,2013-02-21 22:15:00,
2013-02-21 17:20:00,54.1,20.8,30.12,East,92,1.0,3.0,27,0.00,BKN,SCT,0.00,88.0,WeatherDisplay:10.37,2013-02-21 22:20:00,
2013-02-21 17:25:00,53.9,19.7,30.12,East,92,2.0,6.0,26,0.00,BKN,SCT,0.00,74.0,WeatherDisplay:10.37,2013-02-21 22:25:00,
2013-02-21 17:30:00,53.7,19.6,30.12,East,92,0.0,3.0,26,0.00,BKN,SCT,0.00,63.0,WeatherDisplay:10.37,2013-02-21 22:30:00,
2013-02-21 17:35:00,53.5,19.4,30.12,East,92,0.0,2.0,26,0.00,,SCT,0.00,53.0,WeatherDisplay:10.37,2013-02-21 22:35:00,
2013-02-21 17:40:00,53.3,20.1,30.12,East,92,2.0,5.0,27,0.00,,SCT,0.00,39.0,WeatherDisplay:10.37,2013-02-21 22:40:00,
2013-02-21 17:45:00,53.1,20.8,30.13,East,92,1.0,3.0,28,0.00,,SCT,0.00,25.0,WeatherDisplay:10.37,2013-02-21 22:45:00,
2013-02-21 17:50:00,52.8,20.5,30.12,East,92,0.0,2.0,28,0.00,,SCT,0.00,14.0,WeatherDisplay:10.37,2013-02-21 22:50:00,
2013-02-21 17:55:00,52.5,21.1,30.12,East,92,0.0,2.0,29,0.00,,SCT,0.00,11.0,WeatherDisplay:10.37,2013-02-21 22:55:00,
2013-02-21 18:00:00,52.2,21.6,30.13,East,92,0.0,1.0,30,0.00,,SCT,0.00,7.0,WeatherDisplay:10.37,2013-02-21 23:00:00,
2013-02-21 18:05:00,51.9,21.4,30.13,East,92,0.0,0.0,30,0.00,,SCT,0.00,0.0,WeatherDisplay:10.37,2013-02-21 23:05:00,
2013-02-21 18:10:00,51.6,21.1,30.14,East,92,0.0,0.0,30,0.00,,SCT,0.00,0.0,WeatherDisplay:10.37,2013-02-21 23:10:00,
2013-02-21 18:15:00,51.3,23.2,30.14,East,92,0.0,0.0,33,0.00,,SCT,0.00,0.0,WeatherDisplay:10.37,2013-02-21 23:15:00,
2013-02-21 18:20:00,51.1,23.0,30.15,East,92,0.0,0.0,33,0.00,,SCT,0.00,0.0,WeatherDisplay:10.37,2013-02-21 23:20:00,
2013-02-21 18:25:00,50.8,24.1,30.16,East,92,0.0,1.0,35,0.00,,SCT,0.00,0.0,WeatherDisplay:10.37,2013-02-21 23:25:00,
2013-02-21 18:30:00,50.3,24.3,30.15,East,92,0.0,1.0,36,0.00,,SCT,0.00,0.0,WeatherDisplay:10.37,2013-02-21 23:30:00,
2013-02-21 18:35:00,49.7,25.1,30.16,East,92,0.0,0.0,38,0.00,,SCT,0.00,0.0,WeatherDisplay:10.37,2013-02-21 23:35:00,
2013-02-21 18:40:00,49.2,25.3,30.16,East,92,0.0,1.0,39,0.00,,SCT,0.00,0.0,WeatherDisplay:10.37,2013-02-21 23:40:00,
2013-02-21 18:45:00,48.8,24.3,30.16,East,92,0.0,1.0,38,0.00,,SCT,0.00,0.0,WeatherDisplay:10.37,2013-02-21 23:45:00,
2013-02-21 18:50:00,48.4,24.6,30.15,East,92,0.0,1.0,39,0.00,,SCT,0.00,0.0,WeatherDisplay:10.37,2013-02-21 23:50:00,
2013-02-21 18:55:00,48.1,25.5,30.15,East,92,0.0,1.0,41,0.00,,SCT,0.00,0.0,WeatherDisplay:10.37,2013-02-21 23:55:00,
2013-02-21 19:00:00,47.8,23.4,30.15,East,92,0.0,1.0,38,0.00,,SCT,0.00,0.0,WeatherDisplay:10.37,2013-02-22 00:00:00,
2013-02-21 19:05:00,47.6,22.6,30.15,East,92,0.0,2.0,37,0.00,,SCT,0.00,0.0,WeatherDisplay:10.37,2013-02-22 00:05:00,
2013-02-21 19:10:00,47.6,25.0,30.15,East,92,0.0,1.0,41,0.00,,SCT,0.00,0.0,WeatherDisplay:10.37,2013-02-22 00:10:00,
2013-02-21 19:15:00,47.5,23.1,30.15,East,92,0.0,1.0,38,0.00,,SCT,0.00,0.0,WeatherDisplay:10.37,2013-02-22 00:15:00,
2013-02-21 19:20:00,47.4,24.9,30.15,East,92,0.0,0.0,41,0.00,,SCT,0.00,0.0,WeatherDisplay:10.37,2013-02-22 00:20:00,
2013-02-21 19:25:00,47.3,25.3,30.15,East,92,0.0,1.0,42,0.00,,SCT,0.00,0.0,WeatherDisplay:10.37,2013-02-22 00:25:00,
2013-02-21 19:30:00,47.2,24.6,30.15,East,92,0.0,1.0,41,0.00,,SCT,0.00,0.0,WeatherDisplay:10.37,2013-02-22 00:30:00,
2013-02-21 19:35:00,47.0,24.5,30.15,East,92,0.0,1.0,41,0.00,,SCT,0.00,0.0,WeatherDisplay:10.37,2013-02-22 00:35:00,
2013-02-21 19:40:00,46.9,23.8,30.16,East,92,0.0,0.0,40,0.00,,SCT,0.00,0.0,WeatherDisplay:10.37,2013-02-22 00:40:00,
2013-02-21 19:45:00,46.8,24.3,30.15,East,92,0.0,1.0,41,0.00,,SCT,0.00,0.0,WeatherDisplay:10.37,2013-02-22 00:45:00,
2013-02-21 19:50:00,46.7,24.8,30.15,East,92,0.0,1.0,42,0.00,,SCT,0.00,0.0,WeatherDisplay:10.37,2013-02-22 00:50:00,
2013-02-21 19:55:00,46.5,26.3,30.15,East,92,0.0,1.0,45,0.00,,SCT,0.00,0.0,WeatherDisplay:10.37,2013-02-22 00:55:00,
2013-02-21 20:00:00,46.3,24.4,30.15,East,92,0.0,1.0,42,0.00,,SCT,0.00,0.0,WeatherDisplay:10.37,2013-02-22 01:00:00,
2013-02-21 20:05:00,46.2,23.8,30.15,East,92,1.0,2.0,41,0.00,,SCT,0.00,0.0,WeatherDisplay:10.37,2013-02-22 01:05:00,
2013-02-21 20:10:00,46.4,22.7,30.15,East,92,0.0,2.0,39,0.00,,SCT,0.00,0.0,WeatherDisplay:10.37,2013-02-22 01:10:00,
2013-02-21 20:15:00,46.5,22.2,30.15,East,92,0.0,1.0,38,0.00,,SCT,0.00,0.0,WeatherDisplay:10.37,2013-02-22 01:15:00,
2013-02-21 20:20:00,46.7,21.8,30.16,East,92,0.0,0.0,37,0.00,,SCT,0.00,0.0,WeatherDisplay:10.37,2013-02-22 01:20:00,
2013-02-21 20:25:00,46.7,25.4,30.16,East,92,0.0,1.0,43,0.00,,SCT,0.00,0.0,WeatherDisplay:10.37,2013-02-22 01:25:00,
2013-02-21 20:30:00,46.7,26.5,30.16,East,92,0.0,1.0,45,0.00,,SCT,0.00,0.0,WeatherDisplay:10.37,2013-02-22 01:30:00,
2013-02-21 20:35:00,46.5,26.8,30.16,East,92,0.0,0.0,46,0.00,,SCT,0.00,0.0,WeatherDisplay:10.37,2013-02-22 01:35:00,
2013-02-21 20:40:00,46.2,24.9,30.16,East,92,0.0,1.0,43,0.00,,SCT,0.00,0.0,WeatherDisplay:10.37,2013-02-22 01:40:00,
2013-02-21 20:45:00,46.0,25.2,30.16,East,92,0.0,2.0,44,0.00,,SCT,0.00,0.0,WeatherDisplay:10.37,2013-02-22 01:45:00,
2013-02-21 20:50:00,45.8,25.1,30.17,East,92,0.0,1.0,44,0.00,,SCT,0.00,0.0,WeatherDisplay:10.37,2013-02-22 01:50:00,
2013-02-21 20:55:00,45.7,23.3,30.17,East,92,0.0,0.0,41,0.00,,SCT,0.00,0.0,WeatherDisplay:10.37,2013-02-22 01:55:00,
2013-02-21 21:00:00,45.7,23.9,30.18,East,92,0.0,0.0,42,0.00,,SCT,0.00,0.0,WeatherDisplay:10.37,2013-02-22 02:00:00,
2013-02-21 21:05:00,45.7,25.0,30.18,East,92,0.0,0.0,44,0.00,CLR,SCT,0.00,0.0,WeatherDisplay:10.37,2013-02-22 02:05:00,
2013-02-21 21:10:00,45.6,25.5,30.17,East,92,0.0,1.0,45,0.00,CLR,SCT,0.00,0.0,WeatherDisplay:10.37,2013-02-22 02:10:00,
2013-02-21 21:15:00,45.5,25.9,30.17,East,92,0.0,1.0,46,0.00,CLR,SCT,0.00,0.0,WeatherDisplay:10.37,2013-02-22 02:15:00,
2013-02-21 21:20:00,45.2,25.6,30.17,East,92,0.0,1.0,46,0.00,CLR,SCT,0.00,0.0,WeatherDisplay:10.37,2013-02-22 02:20:00,
2013-02-21 21:25:00,45.0,24.9,30.18,East,92,0.0,1.0,45,0.00,CLR,SCT,0.00,0.0,WeatherDisplay:10.37,2013-02-22 02:25:00,
2013-02-21 21:30:00,45.0,24.4,30.18,East,92,0.0,0.0,44,0.00,CLR,SCT,0.00,0.0,WeatherDisplay:10.37,2013-02-22 02:30:00,
2013-02-21 21:35:00,45.0,25.4,30.18,East,92,0.0,1.0,46,0.00,CLR,SCT,0.00,0.0,WeatherDisplay:10.37,2013-02-22 02:35:00,
2013-02-21 21:40:00,45.0,26.0,30.18,East,92,0.0,1.0,47,0.00,CLR,SCT,0.00,0.0,WeatherDisplay:10.37,2013-02-22 02:40:00,
2013-02-21 21:45:00,45.0,25.4,30.18,East,92,0.0,1.0,46,0.00,CLR,SCT,0.00,0.0,WeatherDisplay:10.37,2013-02-22 02:45:00,
2013-02-21 21:50:00,45.0,27.5,30.19,East,92,0.0,0.0,50,0.00,CLR,SCT,0.00,0.0,WeatherDisplay:10.37,2013-02-22 02:50:00,
2013-02-21 21:55:00,45.0,25.4,30.20,East,92,0.0,0.0,46,0.00,CLR,SCT,0.00,0.0,WeatherDisplay:10.37,2013-02-22 02:55:00,
2013-02-21 22:00:00,45.0,23.3,30.20,East,92,0.0,5.0,42,0.00,CLR,SCT,0.00,0.0,WeatherDisplay:10.37,2013-02-22 03:00:00,
2013-02-21 22:05:00,45.3,22.3,30.21,East,92,0.0,2.0,40,0.00,CLR,SCT,0.00,0.0,WeatherDisplay:10.37,2013-02-22 03:05:00,
2013-02-21 22:10:00,45.7,22.7,30.22,East,92,0.0,1.0,40,0.00,CLR,SCT,0.00,0.0,WeatherDisplay:10.37,2013-02-22 03:10:00,
2013-02-21 22:15:00,45.9,24.6,30.23,East,92,0.0,1.0,43,0.00,CLR,SCT,0.00,0.0,WeatherDisplay:10.37,2013-02-22 03:15:00,
2013-02-21 22:20:00,46.1,28.5,30.24,East,92,0.0,1.0,50,0.00,CLR,SCT,0.00,0.0,WeatherDisplay:10.37,2013-02-22 03:20:00,
2013-02-21 22:25:00,46.1,28.5,30.24,East,92,0.0,1.0,50,0.00,CLR,SCT,0.00,0.0,WeatherDisplay:10.37,2013-02-22 03:25:00,
2013-02-21 22:30:00,46.1,28.5,30.24,East,92,0.0,0.0,50,0.00,CLR,SCT,0.00,0.0,WeatherDisplay:10.37,2013-02-22 03:30:00,
2013-02-21 22:35:00,46.0,28.9,30.24,East,92,0.0,1.0,51,0.00,CLR,SCT,0.00,0.0,WeatherDisplay:10.37,2013-02-22 03:35:00,
2013-02-21 22:40:00,45.8,28.2,30.24,East,92,0.0,0.0,50,0.00,CLR,SCT,0.00,0.0,WeatherDisplay:10.37,2013-02-22 03:40:00,
2013-02-21 22:45:00,45.7,28.5,30.24,East,92,0.0,0.0,51,0.00,CLR,SCT,0.00,0.0,WeatherDisplay:10.37,2013-02-22 03:45:00,
2013-02-21 22:50:00,45.4,28.8,30.24,East,92,0.0,0.0,52,0.00,CLR,SCT,0.00,0.0,WeatherDisplay:10.37,2013-02-22 03:50:00,
2013-02-21 22:55:00,45.2,27.6,30.22,East,92,1.0,3.0,50,0.00,CLR,SCT,0.00,0.0,WeatherDisplay:10.37,2013-02-22 03:55:00,
2013-02-21 23:00:00,45.2,27.1,30.23,East,92,0.0,3.0,49,0.00,CLR,SCT,0.00,0.0,WeatherDisplay:10.37,2013-02-22 04:00:00,
2013-02-21 23:05:00,45.1,25.0,30.23,East,92,0.0,2.0,45,0.00,CLR,SCT,0.00,0.0,WeatherDisplay:10.37,2013-02-22 04:05:00,
2013-02-21 23:10:00,45.2,26.1,30.24,East,92,0.0,0.0,47,0.00,CLR,SCT,0.00,0.0,WeatherDisplay:10.37,2013-02-22 04:10:00,
2013-02-21 23:15:00,45.2,29.5,30.25,East,92,0.0,1.0,54,0.00,CLR,SCT,0.00,0.0,WeatherDisplay:10.37,2013-02-22 04:15:00,
2013-02-21 23:20:00,45.2,30.8,30.26,East,92,0.0,0.0,57,0.00,CLR,SCT,0.00,0.0,WeatherDisplay:10.37,2013-02-22 04:20:00,
2013-02-21 23:25:00,45.0,31.1,30.27,East,92,0.0,0.0,58,0.00,CLR,SCT,0.00,0.0,WeatherDisplay:10.37,2013-02-22 04:25:00,
2013-02-21 23:30:00,44.5,31.1,30.27,East,92,0.0,0.0,59,0.00,CLR,SCT,0.00,0.0,WeatherDisplay:10.37,2013-02-22 04:30:00,
2013-02-21 23:35:00,44.1,31.1,30.26,East,92,0.0,1.0,60,0.00,CLR,SCT,0.00,0.0,WeatherDisplay:10.37,2013-02-22 04:35:00,
2013-02-21 23:40:00,43.6,31.1,30.26,East,92,0.0,1.0,61,0.01,RA,SCT,0.01,0.0,WeatherDisplay:10.37,2013-02-22 04:40:00,
2013-02-21 23:45:00,43.1,32.1,30.27,East,92,0.0,1.0,65,0.00,RA,SCT,0.01,0.0,WeatherDisplay:10.37,2013-02-22 04:45:00,
2013-02-21 23:50:00,42.6,32.1,30.28,East,92,0.0,1.0,66,0.00,CLR,SCT,0.01,0.0,WeatherDisplay:10.37,2013-02-22 04:50:00,
2013-02-21 23:55:00,42.3,32.5,30.29,East,92,0.0,0.0,68,0.00,CLR,SCT,0.01,0.0,WeatherDisplay:10.37,2013-02-22 04:55:00,